Home   Weather   Neu-Ulm   Past weeks

Flag for Germany Past Weather in Neu-Ulm, Bavaria, Germany — Yesterday and Last 2 Weeks

Now
54 °F

Partly sunny.


Feels Like: 52 °F
Forecast: 33 / 60 °F
Wind: 7 mph from Southwest

Location: Laupheim Airport

Current Time: Apr 29, 2017 at 5:39:04 pm

Latest Report: Apr 29, 2017 at 4:20 pm


Visibility: N/A

Pressure: 30.01 "Hg

Humidity: 41%

Dew Point: 30 °F

Location of Neu-UlmLocation

Past Weather in Neu-Ulm — Graph

°F

Neu-Ulm Temperature Yesterday

Maximum temperature yesterday: 45 °F (at 5:20 pm)
Minimum temperature yesterday: 34 °F (at 6:20 am)
Average temperature yesterday: 38 °F

High & Low Weather Summary for the Past Weeks

 TemperatureHumidityPressure
High63 °F (Apr 24, 5:20 pm)100% (Apr 18, 2:58 am)30.51 "Hg (Apr 18, 2:58 am)
Low27 °F (Apr 20, 4:20 am)33% (Apr 21, 4:20 pm)29.74 "Hg (Apr 25, 4:20 am)
Average40 °F76%30.09 "Hg
* Reported Apr 14 4:20 pm — Apr 29 4:20 pm, Neu-Ulm, Weather by CustomWeather, © 2017

Note: Actual official high and low records may vary slightly from our data, if they occured in-between our weather recording intervals... More about our weather records

Advertising

Neu-Ulm Weather History for the Previous 24 Hours

Scroll right to see more
 ConditionsComfort  
Time TempWeatherWind HumidityBarometerVisibility
4:20 pm
Sat, Apr 29
54 °FPartly sunny.7 mph41%30.01 "HgN/A
3:20 pm54 °FPartly sunny.6 mph41%30.04 "HgN/A
2:20 pm52 °FScattered clouds.6 mph44%30.04 "HgN/A
1:20 pm50 °FScattered clouds.7 mph50%30.04 "HgN/A
12:20 pm48 °FScattered clouds.6 mph58%30.07 "HgN/A
11:20 am46 °FPassing clouds.6 mph66%30.07 "HgN/A
10:20 am43 °FPassing clouds.8 mph76%30.07 "HgN/A
9:20 am37 °FPartly sunny.7 mph87%30.07 "Hg6 mi
8:46 am37 °FLight rain. Fog.7 mph87%30.07 "Hg3 mi
8:20 am36 °FLight rain. Fog.8 mph93%30.07 "Hg2 mi
7:20 am36 °FLight rain. Fog.2 mph93%30.07 "Hg2 mi
6:20 am36 °FFog.6 mph93%30.07 "Hg1 mi
5:42 am34 °FFog.6 mph100%30.07 "Hg1 mi
4:20 am36 °FFog.7 mph93%30.07 "Hg2 mi
3:20 am34 °FFog.7 mph100%30.07 "Hg2 mi
2:20 am36 °FFog.8 mph93%30.07 "Hg2 mi
1:20 am36 °FFog.9 mph93%30.07 "Hg2 mi
12:20 am36 °FPassing clouds.9 mph93%30.07 "Hg4 mi
11:20 pm
Fri, Apr 28
36 °FPassing clouds.6 mph93%30.04 "HgN/A
10:20 pm37 °FPassing clouds.8 mph93%30.04 "HgN/A
9:20 pm37 °FPassing clouds.8 mph93%30.04 "HgN/A
8:20 pm37 °FScattered clouds.12 mph87%30.01 "HgN/A
7:20 pm41 °FScattered clouds.10 mph81%29.98 "HgN/A
6:20 pm43 °FSprinkles. Partly sunny.9 mph76%29.98 "HgN/A
5:20 pm45 °FPartly sunny.2 mph66%29.95 "HgN/A
Weather by CustomWeather, © 2017

See weather overviewHow to use our weather pages